2024-153G

Last updated on Sun Sep 29 2024 00:02:03 GMT+0000 (Coordinated Universal Time)

1 60751U 24153G 24272.56181614 .00133713 68859-5 10862-2 0 9991 2 60751 97.6419 32.0680 0159076 259.3544 98.9761 15.55813131 4711

Satellite not in orbit

2024-153G